[Iaude] MPEC C174: 2024 CP5 [a=2.60,e=0.61,i=3.5,H=26.0]

mpec at cfa.harvard.edu mpec at cfa.harvard.edu
Wed Feb 14 18:01:41 EST 2024


M.P.E.C. 2024-C174                            Issued 2024 February 14, 23:00 UT

     The Minor Planet Electronic Circulars contain information on unusual
         minor planets, routine data on comets and natural satellites,
         and occasional editorial announcements.  They are published
    on behalf of Division F of the International Astronomical Union by the
          Minor Planet Center, Smithsonian Astrophysical Observatory,
                          Cambridge, MA 02138, U.S.A.
			  
             Prepared using the Tamkin Foundation Computer Network

                              MPC at CFA.HARVARD.EDU
            URL https://www.minorplanetcenter.net/    ISSN 1523-6714

                                    2024 CP5                                    


Observations:
     K24C05P  C2024 01 31.28359307 17 15.608+22 54 17.32         21.42GVEC174F52
     K24C05P  C2024 01 31.29587307 17 18.633+22 53 36.09         21.32GVEC174F52
     K24C05P  C2024 01 31.30814607 17 21.633+22 52 54.64         20.79GVEC174F52
     K24C05P  C2024 01 31.32041407 17 24.618+22 52 13.24         21.57GVEC174F52
     K24C05P  C2024 02 12.40273709 07 33.614-02 27 28.58         20.06GVEC174F52
     K24C05P  C2024 02 12.41517109 07 44.106-02 30 12.84         20.22GVEC174F52
     K24C05P  C2024 02 12.42761209 07 54.600-02 32 57.28         20.17GVEC174F52
     K24C05P  C2024 02 12.44005009 08 05.113-02 35 41.98         20.16GVEC174F52
     K24C05P* C2024 02 14.39743109 40 30.278-10 09 53.60         20.50wXEC174F51
     K24C05P  C2024 02 14.40914609 40 41.781-10 12 42.71         20.38wXEC174F51
     K24C05P  C2024 02 14.42086409 40 53.289-10 15 32.20         20.27GVEC174F51
     K24C05P  C2024 02 14.43232209 41 04.521-10 18 17.90               VEC174F51
     K24C05P  C2024 02 14.52597109 42 37.149-10 40 44.00         20.13GVEC174F51
     K24C05P  C2024 02 14.52661909 42 37.764-10 40 52.79         20.18GVEC174F51
     K24C05P KC2024 02 14.89544509 49 27.44 -12 10 49.5          19.9 GVEC174L01
     K24C05P KC2024 02 14.89767309 49 29.77 -12 11 22.1          19.9 GVEC174L01
     K24C05P KC2024 02 14.89990109 49 32.07 -12 11 54.6          20.0 GVEC174L01

Observer details:
F51 Pan-STARRS 1, Haleakala.  Observers J. Herman, T. Lowe, P. Minguez, A.
    Schultz, I. Smith.  Measurers K. Chambers, T. de Boer, J. Fairlamb, H.
    Gao, M. Huber, C.-C. Lin, E. Magnier, Y. Ramanjooloo, R. Wainscoat, R.
    Weryk.  1.8-m Ritchey-Chretien + CCD.
F52 Pan-STARRS 2, Haleakala.  Observers J. Herman, T. Lowe, P. Minguez, A.
    Schultz, I. Smith.  Measurers K. Chambers, T. de Boer, J. Fairlamb, H.
    Gao, M. Huber, C.-C. Lin, E. Magnier, Y. Ramanjooloo, R. Wainscoat, R.
    Weryk.  1.8-m Ritchey-Chretien + CCD.
L01 Visnjan Observatory, Tican.  Observer K. Korlevic.  1.0-m f/2.9 reflector
    + CCD.

Orbital elements:
2024 CP5                                                 Earth MOID = 0.0390 AU
Epoch 2023 Sept. 13.0 TT = JDT 2460200.5                Veres                   
M 321.52079              (2000.0)            P               Q                  
n   0.23565649     Peri.  206.24871     -0.91173967     -0.40808442             
a   2.5958711      Node   309.58637     +0.38676545     -0.81441016             
e   0.6067799      Incl.    3.48761     +0.13835919     -0.41255690             
P   4.18           H   26.04          G   0.15           U   8                  
Residuals in seconds of arc
240131 F52  0.1-  0.2+    240212 F52  0.0   0.0     240214 F51  0.6+  0.4-
240131 F52  0.0   0.0     240212 F52  0.0   0.2-    240214 F51  0.1+  0.1+
240131 F52  0.0   0.1-    240214 F51  0.6+  0.1-    240214 L01  0.2-  0.3+
240131 F52  0.0   0.0     240214 F51  0.5+  0.2+    240214 L01  0.0   0.2+
240212 F52  0.1-  0.0     240214 F51  0.4+  0.0     240214 L01  0.1-  0.1+
240212 F52  0.0   0.0     240214 F51  0.1+  0.4-

Ephemeris:
2024 CP5                 a,e,i = 2.60, 0.61, 3                   q = 1.0207
Date    TT    R. A. (2000) Decl.     Delta      r    Elong.  Phase     V
2024 01 15    06 39 22.2 +30 34 27   0.1648  1.1421   162.9    14.7    23.2
...
2024 01 30    07 11 30.9 +24 03 29   0.09139 1.0697   157.0    21.1    22.0
...
2024 02 07    08 02 12.8 +13 08 13   0.06000 1.0431   161.2    17.7    20.9
...
2024 02 13    09 16 52.5 -04 39 48   0.04495 1.0297   160.5    18.6    20.3
2024 02 14    09 33 30.1 -08 33 03   0.04374 1.0280   157.8    21.3    20.3
2024 02 15    09 51 16.6 -12 33 03   0.04299 1.0265   154.4    24.5    20.4
...
2024 02 21    11 49 39.6 -32 42 30   0.04841 1.0210   130.8    47.2    21.3
...
2024 02 29    13 49 03.7 -41 23 24   0.07241 1.0233   115.0    61.3    22.6
...
2024 03 15    15 11 17.1 -41 20 31   0.1292  1.0563   115.4    58.3    23.8

M. P. C. Staff               (C) Copyright 2024 MPC           M.P.E.C. 2024-C174





More information about the Iaude mailing list